Weather History for McAllen, TX

Change the Weather History Date:

Wednesday, February 13, 2013

  Actual Average Record
Temperature  
Mean Temperature 63 °F 64 °F  
Max Temperature 72 °F 75 °F 92 °F (2009)
Min Temperature 53 °F 54 °F 28 °F (1895)
Degree Days  
Heating Degree Days 2 4  
Month to date heating degree days 2 61  
Since 1 July heating degree days 271 488  
Cooling Degree Days 0 3  
Month to date cooling degree days 98 37  
Year to date cooling degree days 186 99  
Growing Degree Days 12 (Base 50)    
Moisture  
Dew Point 38 °F    
Average Humidity 40    
Maximum Humidity 63    
Minimum Humidity 17    
Precipitation  
Precipitation 0.00 in 0.05 in 1.20 in (1980)
Month to date precipitation 0.01 0.56  
Year to date precipitation 0.99 1.61  
Sea Level Pressure  
Sea Level Pressure 30.06 in    
Wind  
Wind Speed 9 mph (NNE)    
Max Wind Speed 20 mph    
Max Gust Speed 26 mph    
Visibility 10 miles    
Events      
T = Trace of Precipitation, MM = Missing Value Source: NWS Daily Summary

Daily Weather History Graph

Daily Weather History Graph

Search for Another Location

Airport:

Trip Planner

Search our weather history database for the weather conditions in past years. The results will help you decide how hot, cold, wet, or windy it might be!

Date:

Astronomy

Feb. 13, 2013 Rise Set
Actual Time 7:09 AM CST 6:24 PM CST
Civil Twilight 6:46 AM CST 6:48 PM CST
Nautical Twilight 6:18 AM CST 7:15 PM CST
Astronomical Twilight 5:52 AM CST 7:42 PM CST
Moon 9:06 AM CST (2/13) 9:58 PM CST (2/13)
Length of Visible Light 12h 02m
Length of Day
11h 15m
Waxing Crescent, 14% of the Moon is Illuminated
Feb 13
Waxing Crescent
Feb 17
First Quarter
Feb 25
Full
Mar 4
Last Quarter
Mar 11
New

Hourly Weather History & Observations

Time (CST) Temp. Dew Point Humidity Pressure Visibility Wind Dir Wind Speed Gust Speed Precip Events Conditions
12:53 AM 66.0 °F 51.1 °F 59% 29.97 in 10.0 mi Variable 4.6 mph - N/A   Clear
1:53 AM 64.9 °F 51.1 °F 61% 29.98 in 10.0 mi Calm Calm - N/A   Mostly Cloudy
2:53 AM 66.0 °F 52.0 °F 60% 29.99 in 10.0 mi NW 4.6 mph - N/A   Overcast
3:53 AM 64.0 °F 51.1 °F 63% 29.99 in 10.0 mi NNW 11.5 mph - N/A   Partly Cloudy
4:53 AM 64.9 °F 43.0 °F 45% 30.00 in 10.0 mi North 12.7 mph - N/A   Mostly Cloudy
5:53 AM 64.0 °F 41.0 °F 43% 30.01 in 10.0 mi North 15.0 mph 24.2 mph N/A   Partly Cloudy
6:53 AM 62.1 °F 41.0 °F 46% 30.06 in 10.0 mi North 13.8 mph - N/A   Mostly Cloudy
7:53 AM 61.0 °F 43.0 °F 52% 30.10 in 10.0 mi North 13.8 mph - N/A   Overcast
8:53 AM 62.1 °F 37.9 °F 41% 30.13 in 10.0 mi North 13.8 mph - N/A   Overcast
9:53 AM 63.0 °F 35.1 °F 35% 30.15 in 10.0 mi NNW 11.5 mph - N/A   Overcast
10:53 AM 64.9 °F 32.0 °F 29% 30.15 in 10.0 mi North 10.4 mph - N/A   Overcast
11:53 AM 66.9 °F 33.1 °F 28% 30.13 in 10.0 mi NNW 12.7 mph 18.4 mph N/A   Overcast
12:53 PM 68.0 °F 30.9 °F 25% 30.10 in 10.0 mi North 8.1 mph - N/A   Overcast
1:53 PM 68.0 °F 30.0 °F 24% 30.06 in 10.0 mi North 9.2 mph - N/A   Mostly Cloudy
2:53 PM 70.0 °F 28.9 °F 22% 30.03 in 10.0 mi NE 11.5 mph 16.1 mph N/A   Mostly Cloudy
3:53 PM 70.0 °F 25.0 °F 18% 30.01 in 10.0 mi North 12.7 mph - N/A   Mostly Cloudy
4:53 PM 69.1 °F 23.0 °F 18% 30.01 in 10.0 mi NE 9.2 mph - N/A   Clear
5:53 PM 66.0 °F 26.1 °F 22% 30.02 in 10.0 mi NNE 6.9 mph - N/A   Clear
6:53 PM 64.0 °F 30.0 °F 28% 30.03 in 10.0 mi East 8.1 mph - N/A   Clear
7:53 PM 61.0 °F 39.0 °F 44% 30.04 in 10.0 mi East 10.4 mph - N/A   Clear
8:53 PM 59.0 °F 41.0 °F 51% 30.09 in 10.0 mi ESE 6.9 mph - N/A   Clear
9:53 PM 57.0 °F 42.1 °F 57% 30.10 in 10.0 mi ESE 6.9 mph - N/A   Clear
10:53 PM 55.0 °F 42.1 °F 62% 30.11 in 10.0 mi ESE 4.6 mph - N/A   Clear
11:53 PM 54.0 °F 42.1 °F 64% 30.12 in 10.0 mi Calm Calm - N/A   Clear